Location: Hanover
(52.3667°N, 9.7167°E)
Time: 04:58:21
(UTC+02:00)

Envisat - Pass Details

Date: 20 September 2024
Orbit: 762 x 764 km, 98.3° (Epoch: 04 October)

Event Time Altitude Azimuth Distance (km) Brightness Sun altitude
Rises 04:35:44 0° 15° (NNE) 3,240 7.0 -22.1°
Reaches altitude 10° 04:38:04 10° 18° (NNE) 2,309 6.2 -21.9°
Maximum altitude 04:43:09 75° 104° (ESE) 795 3.1 -21.2°
Enters shadow 04:45:54 28° 185° (S) 1,413 4.0 -20.8°
